Flag for Switzerland Weather past 2 weeks in Illnau-Effretikon, Zurich, Switzerland

Now
51 °F

Cool.


Feels Like: 51 °F
Forecast: 47 / 62 °F
Wind: 2 mph from Northeast

Location: Zurich Town / Ville.

Current Time: Sep 5, 2015 at 7:53:20 AM

Latest Report: Sep 5, 2015 at 7:00 AM


Visibility: N/A

Pressure: 30.04 "Hg (28.24 "Hg at 514m altitude)

Humidity: 95%

Dew point: 50 °F

Location of Illnau-EffretikonLocation

Historic Weather in Illnau-Effretikon — Graph

°F

Illnau-Effretikon temperature yesterday

Maximum temperature yesterday: 65 °F (at 5:00 PM)
Minimum temperature yesterday: 53 °F (at 7:00 AM)
Average temperature yesterday: 59 °F

Past Weeks' High & Low Weather Summary

 TemperatureHumidityPressure
High89 °F (Aug 30, 4:00 PM)98% (Aug 24, 2:00 AM)30.26 "Hg (Aug 24, 2:00 AM)
Low51 °F (Sep 5, 3:00 AM)23% (Aug 30, 3:00 PM)29.70 "Hg (Aug 24, 2:00 PM)
Average67 °F68%29.99 "Hg
* Reported Aug 21 7:00 AM — Sep 5 6:00 AM, Illnau-Effretikon, Weather by CustomWeather, © 2015

Note: Actual official high and low records may vary slightly from our data, if they occured in-between our weather recording intervals... More about our weather records

Advertising

Illnau-Effretikon weather history for previous 24 hours

 ConditionsComfort  
Time TempWeatherWind HumidityBarometerVisibility
6:00 AM
Sat, Sep 5
51 °FCool.1 mph93%30.03 "HgN/A
4:00 AM51 °FCool.5 mph95%30.04 "HgN/A
3:00 AM51 °FCool.6 mph89%30.04 "HgN/A
2:00 AM52 °FCool.3 mph91%30.04 "HgN/A
1:00 AM57 °FRefreshingly cool.6 mph56%30.01 "HgN/A
12:00 AM58 °FRefreshingly cool.5 mph57%29.99 "HgN/A
10:00 PM
Fri, Sep 4
61 °FRefreshingly cool.3 mph49%29.98 "HgN/A
9:00 PM62 °FRefreshingly cool.3 mph48%29.96 "HgN/A
7:00 PM63 °FMild.3 mph51%29.94 "HgN/A
6:00 PM64 °FMild.2 mph49%29.93 "HgN/A
5:00 PM65 °FMild.3 mph48%29.93 "HgN/A
4:00 PM64 °FMild.5 mph49%29.95 "HgN/A
3:00 PM64 °FMild.3 mph51%29.97 "HgN/A
2:00 PM64 °FScattered clouds.2 mph49%29.98 "HgN/A
1:00 PM64 °FMild.5 mph52%29.99 "HgN/A
12:00 PM64 °FMild.5 mph61%30.00 "HgN/A
11:00 AM61 °FCool.2 mph74%30.02 "HgN/A
10:00 AM59 °FCool.2 mph85%30.02 "HgN/A
9:00 AM56 °FCool.2 mph89%30.03 "HgN/A
8:00 AM54 °FCool.2 mph93%30.03 "HgN/A
7:00 AM53 °FCool.2 mph94%30.03 "HgN/A
Weather by CustomWeather, © 2015

See weather overviewHow to use our weather pages